Weather History for KAAT - January, 2012

Change the Weather History Date:

Tuesday, January 24, 2012

  Actual Average Record
Temperature  
Mean Temperature 33 °F 30 °F  
Max Temperature 42 °F 42 °F 61 °F (1959)
Min Temperature 23 °F 19 °F -15 °F (1962)
Degree Days  
Heating Degree Days 32 35  
Month to date heating degree days 806 852  
Since 1 July heating degree days 3507 3762  
Cooling Degree Days 0 0  
Month to date cooling degree days 0 0  
Year to date cooling degree days 0 0  
Moisture  
Dew Point 30 °F    
Average Humidity 85    
Maximum Humidity 96    
Minimum Humidity 73    
Precipitation  
Precipitation 0.02 in 0.04 in 0.92 in (1970)
Month to date precipitation 0.71 1.35  
Year to date precipitation 0.71 1.35  
Sea Level Pressure  
Sea Level Pressure 30.29 in    
Wind  
Wind Speed 2 mph (South)    
Max Wind Speed 10 mph    
Max Gust Speed 14 mph    
Visibility 8 miles    
Events Snow    
T = Trace of Precipitation, MM = Missing Value Source: NWS Daily Summary

Daily Weather History Graph

Daily Weather History Graph

Search for Another Location

Airport or City:

Trip Planner

Search our weather history database for the weather conditions in past years. The results will help you decide how hot, cold, wet, or windy it might be!

Date:

Astronomy

Jan. 24, 2012 Rise Set
Actual Time 7:21 AM PST 5:07 PM PST
Civil Twilight 6:51 AM PST 5:37 PM PST
Nautical Twilight 6:17 AM PST 6:11 PM PST
Astronomical Twilight 5:44 AM PST 6:44 PM PST
Moon 7:51 AM PST (1/24) 7:06 PM PST (1/24)
Length of Visible Light 10h 46m
Length of Day
9h 46m
Waxing Crescent, 3% of the Moon is Illuminated
Jan 24
Waxing Crescent
Jan 30
First Quarter
Feb 7
Full
Feb 14
Last Quarter
Feb 21
New

Hourly Weather History & Observations

Time (PST) Temp. Windchill Dew Point Humidity Pressure Visibility Wind Dir Wind Speed Gust Speed Precip Events Conditions
12:55 AM 25.0 °F - 23.0 °F 92% 30.23 in 10.0 mi Calm Calm - N/A   Mostly Cloudy
1:55 AM 23.0 °F - 21.0 °F 92% 30.23 in 10.0 mi Calm Calm - N/A   Clear
2:55 AM 25.0 °F - 23.0 °F 92% 30.24 in 8.0 mi Calm Calm - N/A   Overcast
3:55 AM 25.0 °F - 23.0 °F 92% 30.23 in 10.0 mi Calm Calm - N/A   Mostly Cloudy
4:55 AM 25.0 °F - 23.0 °F 92% 30.24 in 10.0 mi Calm Calm - N/A   Overcast
5:55 AM 25.0 °F - 23.0 °F 92% 30.26 in 8.0 mi Calm Calm - N/A   Overcast
6:55 AM 27.0 °F - 25.0 °F 92% 30.29 in 9.0 mi Calm Calm - N/A   Overcast
7:55 AM 27.0 °F - 26.1 °F 96% 30.32 in 5.0 mi Calm Calm - 0.00 in Snow Light Snow
8:01 AM 28.4 °F - 26.6 °F 93% 30.23 in 1.8 mi Calm Calm - 0.00 in Snow Light Snow
8:11 AM 28.4 °F - 26.6 °F 93% 30.24 in 1.0 mi Calm Calm - 0.01 in Snow Light Snow
8:32 AM 28.4 °F 24.6 °F 26.6 °F 93% 30.22 in 0.8 mi ESE 3.5 mph - 0.02 in Snow Light Snow
8:39 AM 28.4 °F 23.3 °F 26.6 °F 93% 30.22 in 1.2 mi SE 4.6 mph - 0.02 in Snow Light Snow
8:46 AM 28.4 °F 24.6 °F 26.6 °F 93% 30.23 in 3.0 mi SSE 3.5 mph - 0.02 in Snow Light Snow
8:55 AM 28.0 °F - 27.0 °F 96% 30.31 in 7.0 mi Calm Calm - 0.02 in   Overcast
9:55 AM 30.9 °F - 28.9 °F 92% 30.30 in 10.0 mi Calm Calm - N/A   Overcast
10:55 AM 35.1 °F 29.3 °F 30.9 °F 85% 30.29 in 10.0 mi South 6.9 mph - N/A   Overcast
11:55 AM 37.9 °F 32.7 °F 32.0 °F 79% 30.27 in 10.0 mi South 6.9 mph - N/A   Overcast
12:55 PM 37.9 °F 33.5 °F 33.1 °F 83% 30.26 in 10.0 mi South 5.8 mph - N/A   Overcast
1:55 PM 41.0 °F 36.4 °F 34.0 °F 76% 30.25 in 10.0 mi South 6.9 mph - N/A   Overcast
2:55 PM 39.9 °F 35.8 °F 35.1 °F 83% 30.25 in 10.0 mi South 5.8 mph - N/A   Overcast
3:55 PM 41.0 °F 39.0 °F 35.1 °F 79% 30.29 in 10.0 mi WSW 3.5 mph - N/A   Overcast
4:55 PM 39.0 °F 36.8 °F 35.1 °F 86% 30.31 in 10.0 mi WSW 3.5 mph - N/A   Overcast
5:39 PM 39.2 °F - 33.8 °F 81% 30.27 in 10.0 mi Calm Calm - N/A   Overcast
5:55 PM 37.0 °F - 34.0 °F 89% 30.34 in 10.0 mi Calm Calm - N/A   Overcast
6:13 PM 37.4 °F - 33.8 °F 87% 30.28 in 10.0 mi Calm Calm - N/A   Overcast
6:51 PM 39.2 °F - 35.6 °F 87% 30.29 in 9.0 mi Calm Calm - N/A   Overcast
6:55 PM 39.0 °F - 35.1 °F 86% 30.35 in 10.0 mi Calm Calm - N/A   Overcast
7:55 PM 37.9 °F - 35.1 °F 89% 30.36 in 10.0 mi Calm Calm - N/A   Overcast
8:55 PM 37.0 °F - 35.1 °F 93% 30.38 in 10.0 mi Calm Calm - N/A   Overcast
9:55 PM 37.0 °F - 35.1 °F 93% 30.40 in 10.0 mi Calm Calm - N/A   Overcast
10:11 PM 37.4 °F 34.9 °F 35.6 °F 93% 30.34 in 10.0 mi SSW 3.5 mph - N/A   Mostly Cloudy
10:55 PM 35.1 °F - 34.0 °F 96% 30.40 in 10.0 mi Calm Calm - N/A   Overcast
11:43 PM 35.6 °F - 35.6 °F 100% 30.35 in 2.5 mi Calm Calm - 0.00 in   Mostly Cloudy
11:51 PM 35.6 °F - 33.8 °F 93% 30.36 in 4.0 mi Calm Calm - 0.00 in   Mostly Cloudy
11:55 PM 34.0 °F - 33.1 °F 96% 30.40 in 4.0 mi Calm Calm - 0.00 in   Mostly Cloudy